Theta_e
320 319 318 318 317 316 315 320 313 308 312 315 320 327 329 329 333 331 330 326 325 323 322 322 323 324 324 324 326 326 327 327 327 328 328 329 328 326
319 321 318 320 318 318 316 316 316 313 310 316 321 326 328 330 333 329 327 325 323 322 321 320 320 320 320 319 322 324 324 324 324 325 326 325 324 322
317 319 319 318 317 319 317 316 313 313 313 318 322 326 326 326 326 326 326 324 322 321 320 319 317 318 316 316 318 319 321 321 320 321 321 321 320 320
318 318 319 322 321 321 318 316 313 314 317 316 319 320 323 323 324 322 322 322 320 319 318 317 316 314 314 313 313 314 314 315 316 317 317 317 317 315
321 318 322 321 320 319 320 318 317 318 319 317 317 320 319 321 319 319 318 318 320 320 317 316 314 313 312 311 311 310 309 308 309 310 312 313 312 311
323 322 323 323 321 321 320 320 320 319 319 318 317 317 317 319 318 315 314 316 312 314 313 313 312 313 311 310 311 310 307 305 305 305 305 305 305 306
322 324 323 322 320 320 321 321 320 318 318 317 315 315 315 315 313 314 311 311 310 312 309 308 308 308 308 311 312 309 305 304 303 302 302 301 300 301
321 321 321 318 315 312 313 314 318 319 318 316 315 314 314 314 314 313 311 309 305 310 305 302 303 300 301 302 305 303 303 302 302 301 300 299 299 298
322 320 319 318 317 315 310 310 310 310 315 319 315 315 314 315 314 312 311 309 307 306 305 298 299 295 298 300 301 301 300 300 300 299 299 298 297 296
322 321 320 319 318 319 318 317 317 318 319 320 318 318 317 317 316 315 312 306 307 305 303 296 295 293 294 294 300 299 298 297 298 298 298 297 295 295
322 322 321 319 303 306 318 315 313 312 307 305 305 303 301 304 310 312 309 308 304 303 302 297 295 292 292 292 293 299 297 297 297 297 297 296 295 295
320 318 307 312 301 305 318 316 313 314 315 315 313 309 310 307 307 313 311 307 302 301 305 297 294 293 292 293 292 293 293 297 296 296 296 296 295 291
319 317 312 299 300 301 308 318 314 315 311 316 315 315 316 314 311 310 309 309 303 302 305 300 295 294 294 292 290 290 291 290 292 292 296 296 295 293
319 317 307 297 299 300 308 298 300 309 316 315 312 312 313 312 310 309 309 309 310 310 306 302 298 297 296 291 292 289 289 288 289 288 288 292 295 295
320 309 297 296 297 301 298 299 304 316 315 313 312 310 311 313 312 310 309 309 307 309 308 305 302 300 299 298 296 291 288 289 288 287 288 288 289 290
305 306 304 304 303 305 306 309 319 315 316 314 311 309 311 316 312 312 311 310 308 305 302 303 305 303 301 301 299 295 293 294 288 288 289 289 290 290
311 314 316 316 315 316 317 318 316 317 315 311 312 311 311 312 311 312 311 308 308 305 302 296 295 300 298 302 299 298 296 295 293 290 289 290 292 292
317 317 316 316 316 317 317 318 316 312 314 314 312 313 312 312 311 311 310 309 307 306 302 294 293 294 293 293 298 299 296 295 294 293 292 291 290 293
315 316 315 316 317 318 319 318 318 319 316 317 316 315 315 314 309 313 311 309 307 306 303 296 294 295 294 297 291 292 296 293 292 291 290 290 291 292
315 314 313 314 317 318 318 319 318 317 317 317 317 315 315 315 312 313 314 312 311 306 303 299 294 294 298 303 298 289 289 291 291 290 288 288 287 289
314 315 314 315 316 317 318 319 318 317 317 315 316 315 316 316 316 315 315 303 305 306 307 306 306 293 293 292 291 288 286 290 293 290 289 290 288 288
314 315 314 314 315 316 317 318 316 312 314 316 317 318 317 317 317 317 316 314 312 313 310 307 295 292 291 295 297 289 285 285 289 293 293 292 289 288
316 316 316 316 315 315 315 316 316 316 316 316 316 317 317 316 318 318 317 316 316 312 311 298 292 291 291 292 291 283 285 284 286 285 288 291 292 292
Wind_Speed
5 5 4 4 4 4 3 3 5 4 2 1 1 2 3 3 6 7 9 19 21 20 21 22 22 20 16 14 14 13 11 11 11 10 8 7 11 11
2 4 4 3 4 4 4 3 2 4 4 1 1 1 4 4 10 10 13 21 24 24 24 22 19 17 17 15 12 9 9 11 11 11 11 11 12 13
1 3 4 4 3 3 3 3 3 3 5 2 1 3 5 9 9 11 12 13 14 25 25 21 19 16 18 15 10 10 11 11 11 11 11 13 14 14
4 4 3 3 3 4 4 5 4 3 7 8 2 4 5 10 11 13 10 11 13 23 22 20 15 13 14 12 12 13 10 11 11 12 13 14 15 15
2 4 4 5 4 3 4 7 6 5 7 7 5 5 5 10 13 13 12 14 11 20 17 13 13 14 12 12 11 10 12 12 12 12 13 14 14 13
1 3 4 5 5 6 6 7 8 9 9 10 9 9 9 9 13 13 11 11 9 8 14 12 11 11 11 12 12 12 12 12 13 13 12 12 12 12
2 3 5 7 8 6 5 8 10 8 10 10 9 9 9 10 14 10 13 10 7 5 6 5 5 5 6 8 10 12 12 12 12 12 12 12 12 12
4 5 4 9 8 10 11 9 8 13 12 8 9 11 10 11 12 12 14 10 5 2 4 4 3 5 4 4 8 10 11 11 11 12 11 11 10 10
6 6 6 6 10 10 14 13 10 11 10 14 14 11 13 14 13 13 12 7 4 3 6 3 3 4 3 4 7 9 10 10 10 10 11 11 10 9
7 7 8 9 10 13 12 12 10 10 11 9 12 13 13 12 12 11 13 9 8 4 3 4 1 2 1 2 4 6 8 10 10 11 10 10 8 8
8 6 8 9 10 14 13 14 15 12 16 17 16 17 14 14 12 11 9 12 5 1 1 4 2 2 0 2 3 6 7 7 7 8 9 10 9 8
7 7 11 9 12 11 13 13 13 12 14 15 12 13 12 10 9 6 11 10 5 2 4 5 3 4 2 2 2 2 2 5 5 7 8 8 8 4
6 6 4 10 13 12 11 11 12 11 13 12 10 7 7 6 5 5 5 9 4 2 6 5 4 3 1 2 2 3 3 2 4 4 8 10 11 8
6 6 4 10 12 13 10 15 16 12 9 8 8 6 6 4 4 5 6 5 3 1 9 6 4 5 4 2 2 1 3 4 4 3 4 6 9 10
6 9 12 11 12 11 15 14 9 7 9 9 7 4 3 4 5 5 3 3 5 3 5 3 4 5 4 4 3 3 4 5 5 5 5 5 5 4
11 8 7 8 8 9 7 4 4 5 7 7 6 4 4 3 3 3 3 3 2 1 2 4 4 5 4 3 4 4 4 4 5 7 6 3 3 4
9 6 6 5 5 5 6 4 5 5 6 4 5 5 3 3 3 3 3 3 3 3 2 1 3 2 2 4 4 4 4 4 4 5 4 4 4 5
5 5 5 5 5 5 6 5 4 4 4 4 4 5 5 5 4 3 3 4 4 4 3 2 2 2 2 3 4 3 4 3 4 5 3 4 2 3
4 5 5 5 4 5 4 4 5 7 5 6 6 6 6 5 5 6 4 4 3 3 4 4 4 4 4 5 2 2 4 4 4 4 4 3 4 3
4 6 6 6 7 7 7 7 7 6 6 7 7 6 5 5 4 5 5 5 4 4 3 4 5 5 7 6 4 3 1 4 5 4 4 2 3 4
4 5 5 6 7 8 8 8 9 7 7 5 6 6 6 7 7 6 6 9 8 4 7 8 11 7 4 3 2 3 3 4 4 5 5 4 3 2
4 5 5 5 6 7 8 8 7 6 7 7 8 7 7 7 8 8 8 8 8 9 10 2 4 5 4 7 9 4 2 0 4 9 5 5 7 5
6 7 6 6 6 6 6 7 8 8 8 9 8 8 7 7 9 8 8 9 9 7 7 4 4 2 3 7 5 3 6 4 4 3 2 6 8 11
Wind_Direction
221 213 208 202 184 194 189 174 151 135 144 76 83 289 137 142 150 129 131 125 119 123 120 118 121 121 113 116 123 129 146 132 138 134 153 146 114 110
200 197 193 188 182 181 185 175 127 127 125 142 181 208 122 113 133 129 128 121 118 118 111 118 116 109 110 107 110 122 131 124 118 118 116 114 111 113
185 175 200 152 161 170 168 137 116 111 116 101 102 102 105 112 108 115 122 119 119 117 112 110 107 106 116 129 134 123 120 121 119 118 113 114 116 114
162 161 143 113 140 137 148 135 138 124 137 138 69 62 102 104 107 106 108 110 118 110 113 120 122 125 133 126 125 117 127 113 114 118 119 112 113 123
158 158 154 147 146 124 112 117 122 112 113 126 121 101 102 117 101 99 104 106 100 110 108 114 119 117 124 122 116 109 111 117 114 109 110 117 123 127
204 140 144 132 132 130 124 127 124 116 126 117 114 117 111 111 107 115 106 96 96 86 78 84 87 91 94 99 111 114 113 110 112 118 118 116 111 112
95 120 122 119 118 111 133 134 129 134 130 120 120 122 122 128 125 118 103 102 78 89 80 49 62 61 50 72 101 110 112 122 124 115 112 120 127 126
89 83 94 119 108 104 97 89 128 139 126 122 129 133 123 125 124 125 122 124 113 4 92 59 35 63 38 44 100 120 118 113 120 132 132 131 136 139
77 81 77 97 105 102 92 88 83 83 112 139 136 136 130 136 132 129 127 114 103 100 95 86 42 65 31 77 117 123 127 135 135 143 149 150 149 144
79 87 103 110 106 102 95 85 88 107 117 124 127 130 129 128 127 128 122 104 90 76 85 97 37 64 32 25 110 144 149 156 160 165 161 160 151 157
90 79 103 106 100 103 96 93 89 82 73 85 94 99 101 106 122 123 117 122 111 111 58 111 167 100 52 239 235 193 175 175 177 170 168 171 176 175
91 82 85 110 98 94 109 101 101 106 105 103 98 93 105 108 100 114 140 137 121 87 207 101 131 143 207 230 222 182 176 204 189 196 196 190 186 180
105 108 102 106 100 92 103 113 112 115 112 117 113 109 115 103 98 101 104 138 130 161 179 115 151 176 148 161 280 184 168 189 190 208 212 211 209 188
118 121 117 113 109 95 94 120 119 119 122 118 115 115 121 123 128 133 140 161 116 214 162 139 145 163 147 122 230 129 197 217 188 198 197 217 221 215
126 118 119 109 100 98 129 129 123 119 129 135 138 124 139 141 128 108 105 102 61 68 164 188 133 147 156 174 175 184 162 220 190 196 198 200 194 191
102 109 111 93 88 115 113 124 114 125 142 134 129 130 123 124 108 132 145 160 164 245 33 33 169 160 177 196 172 184 206 200 182 209 206 197 203 210
115 124 128 125 133 138 146 129 117 121 122 113 144 149 126 128 161 179 145 153 178 180 196 85 38 118 97 166 204 205 194 217 201 176 157 213 220 208
120 136 138 145 158 150 159 143 116 118 131 137 148 154 169 184 183 184 171 182 185 195 173 191 134 75 14 269 224 197 212 214 176 168 173 169 221 215
145 153 142 151 157 149 150 147 164 189 164 170 175 185 182 185 171 205 194 197 223 207 195 169 167 168 172 242 215 242 195 191 155 164 172 155 174 175
165 172 167 167 177 180 175 180 192 182 185 186 190 183 181 185 185 213 204 211 218 211 205 183 199 191 195 224 200 201 244 171 178 164 148 92 54 86
176 184 179 177 178 183 189 198 199 190 188 183 191 187 192 193 213 210 211 213 205 194 226 226 225 186 130 95 353 251 230 351 211 158 154 130 157 148
185 191 188 182 186 187 188 193 196 187 191 200 209 206 203 204 217 213 211 219 218 223 236 265 137 129 157 185 234 200 180 190 25 91 70 110 163 167
202 197 189 187 187 190 193 196 202 206 207 210 213 216 211 214 222 221 217 220 228 221 221 184 166 166 212 203 195 167 177 170 164 163 159 85 103 95